This demonstration page uses our WeatherBlox Daily Observations layout. Learn more.

Left ArrowRight Arrow

47.50024, -111.30081

Hourly Observations for July 22, 2020

Temp ( °F °C ) Dew Point ( °F °C ) Humidity (%) Winds ( mph kmh ) Pressure ( in mb ) Visibility ( mi km ) Precip ( " mm )
12:53 am 00:53 Clear 62 16.7 48 8.9 60 60 S 5 7 29.77 1008 10 16 0.00 0.00
1:53 am 01:53 Clear 59 15 48 8.9 67 67 SSW 7 11 29.76 1008 10 16 0.00 0.00
2:53 am 02:53 Clear 59 15 47 8.3 64 64 SSW 7 11 29.75 1008 10 16 0.00 0.00
3:53 am 03:53 Clear 56 13.3 46 7.8 70 70 SW 7 11 29.76 1008 10 16 0.00 0.00
4:53 am 04:53 Clear 51 10.6 44 6.7 77 77 W 6 9 29.77 1008 10 16 0.00 0.00
5:53 am 05:53 Sunny 51 10.6 43 6.1 74 74 S 5 7 29.77 1008 10 16 0.00 0.00
6:53 am 06:53 Sunny 57 13.9 45 7.2 64 64 W 6 9 29.76 1008 10 16 0.00 0.00
7:53 am 07:53 Sunny 63 17.2 47 8.3 56 56 WSW 7 11 29.76 1008 10 16 0.00 0.00
8:53 am 08:53 Sunny 72 22.2 45 7.2 38 38 SSW 10 17 29.76 1008 10 16 0.00 0.00
9:53 am 09:53 Sunny 78 25.6 48 8.9 35 35 SSW 9 15 29.75 1007 10 16 0.00 0.00
10:53 am 10:53 Sunny 84 28.9 46 7.8 27 27 WSW 15 24 29.74 1007 10 16 0.00 0.00
11:53 am 11:53 Sunny 87 30.6 44 6.7 22 22 SSW 12 19 29.73 1007 10 16 0.00 0.00
12:53 pm 12:53 Sunny 89 31.7 43 6.1 20 20 SSW 12 19 29.72 1007 10 16 0.00 0.00
1:53 pm 13:53 Sunny 91 32.8 44 6.7 20 20 S 9 15 29.71 1006 10 16 0.00 0.00
2:53 pm 14:53 Sunny 93 33.9 44 6.7 18 18 W 10 17 29.69 1005 10 16 0.00 0.00
3:53 pm 15:53 Sunny 93 33.9 45 7.2 19 19 S 9 15 29.67 1005 10 16 0.00 0.00
4:53 pm 16:53 Sunny 90 32.2 46 7.8 22 22 S 5 7 29.67 1005 10 16 0.00 0.00
5:53 pm 17:53 Partly Cloudy 89 31.7 42 5.6 19 19 SSW 12 19 29.68 1005 10 16 0.00 0.00
6:53 pm 18:53 Sunny 84 28.9 44 6.7 25 25 WNW 25 41 29.68 1005 10 16 0.00 0.00
7:01 pm 19:01 Sunny 81 27.2 49 9.4 33 33 WNW 21 33 29.52 1000 10 16 0.00 0.00
7:53 pm 19:53 Sunny 80 26.7 48 8.9 33 33 WNW 9 15 29.69 1006 10 16 0.00 0.00
8:53 pm 20:53 Sunny 76 24.4 49 9.4 39 39 SW 13 20 29.72 1006 10 16 0.00 0.00
9:53 pm 21:53 Partly Cloudy 74 23.3 49 9.4 41 41 Calm 29.71 1006 10 16 0.00 0.00
10:53 pm 22:53 Clear 77 25 48 8.9 36 36 SSE 7 11 29.70 1006 10 16 0.00 0.00
11:53 pm 23:53 Clear 73 22.8 47 8.3 40 40 SSE 9 15 29.69 1005 10 16 0.00 0.00

Powered by AerisWeather